|
Cosmos 1151 Rocket - Orbit
|
River House Observatory;
02:09:52
| Home | Info | Passes |
|
View from above orbital plane
|
View from above satellite
|
Ground track
|
The orbit data is extracted from the following two-line orbital elements,
1 11672U 80005B 13140.83033916 .00000454 00000-0 48164-4 0 6977
2 11672 082.5180 043.1879 0016650 209.8062 221.8477 14.86753186802156
| Epoch (UTC): | 20 May 2013 19:55:41 |
| Eccentricity: | 0.0016650 |
| inclination: | 82.5180° |
| perigee height: | 596 km |
| apogee height: | 620 km |
| right ascension of ascending node: | 43.1879° |
| argument of perigee: | 209.8062° |
| revolutions per day: | 14.86753186 |
| mean anomaly at epoch: | 221.8477° |
| orbit number at epoch: | 80215 |
The dashed part of the orbit path shows where the satellite is in the earth's shadow,
|
|